Wind_Speed
38 37 36 37 36 37 34 36 35 37 39 40 31 30 30 28 24 19 20 14 12 12 12 9 5 2 1 1 6 6 5 4 6 9 10 12 14 14 15 15 15 16 17 18 19 17 16 15 15
39 36 38 40 39 37 32 37 38 41 44 39 38 34 29 25 27 21 23 19 19 17 12 10 6 5 4 2 4 5 5 5 6 8 10 12 14 15 17 17 16 16 18 18 16 14 14 14 15
42 41 40 41 41 38 38 40 44 45 43 42 43 39 36 35 27 24 22 22 20 20 16 11 5 6 6 5 2 3 3 5 6 9 10 11 11 13 15 16 16 17 15 13 13 13 14 14 14
46 46 44 46 44 39 44 43 45 46 47 43 41 41 41 37 31 26 26 21 22 21 20 13 7 9 6 8 5 2 1 3 5 7 9 10 11 11 14 14 15 15 15 13 13 13 15 17 18
42 45 45 44 42 45 45 49 49 49 47 44 43 44 45 41 33 28 30 26 24 21 22 14 10 11 10 10 11 6 4 5 3 5 7 9 11 11 12 12 12 12 12 12 13 14 16 18 21
49 45 45 41 44 44 47 52 51 50 49 44 42 41 47 46 38 31 31 31 31 26 22 21 16 13 13 13 13 12 7 6 6 6 7 9 11 12 12 13 12 11 12 13 15 16 17 19 22
54 51 50 44 44 45 44 57 46 47 47 46 43 41 46 50 44 36 34 33 32 32 27 22 15 17 16 15 14 15 12 9 7 8 8 10 11 12 12 13 13 13 13 14 16 18 20 22 23
53 56 54 54 50 45 45 52 58 47 47 49 44 45 45 51 48 44 40 38 35 34 33 28 22 21 20 19 17 17 16 14 10 10 10 9 10 11 12 13 14 14 14 15 17 19 22 24 26
45 55 58 58 55 52 50 46 61 58 46 45 46 43 44 46 46 47 45 43 41 41 38 35 30 27 23 21 18 18 19 18 13 12 11 9 10 11 12 12 14 16 16 17 17 19 22 24 27
39 45 51 52 52 50 50 50 52 66 49 44 46 47 45 44 44 46 50 48 44 39 44 39 34 31 27 24 23 21 20 21 16 13 13 13 14 14 14 14 13 16 17 17 18 20 21 24 26
38 41 39 50 52 52 50 55 55 49 66 42 49 49 47 49 45 48 51 51 48 42 43 45 42 46 33 27 28 25 23 25 21 17 16 17 18 17 16 13 13 14 17 15 18 21 22 25 29
36 38 42 39 45 50 49 48 56 57 60 59 49 51 49 51 51 51 51 51 50 52 46 43 42 35 25 30 33 29 31 27 26 21 20 20 20 18 16 13 12 14 16 17 19 21 24 26 29
36 38 38 41 41 43 51 46 45 57 59 64 54 55 52 52 56 56 54 51 49 52 52 47 41 38 39 39 37 33 34 35 28 25 24 25 25 21 20 17 14 16 16 18 21 24 27 28 31
38 37 35 39 40 40 50 48 48 45 56 54 70 59 57 55 57 59 60 56 51 54 56 54 45 47 42 43 45 40 41 31 38 30 31 22 28 23 24 23 21 20 20 18 22 24 30 35 35
36 36 36 35 39 39 41 46 47 50 48 42 64 77 70 59 59 60 61 62 58 58 60 56 53 51 50 40 38 38 46 40 32 32 37 24 23 27 32 34 36 35 23 22 23 24 28 35 38
35 34 35 39 39 40 37 38 47 51 51 45 54 74 69 66 63 63 63 63 61 57 58 64 63 55 54 48 48 49 39 34 39 41 39 33 29 32 36 38 48 25 29 26 27 24 30 36 41
34 34 35 40 35 39 37 37 44 44 48 46 45 51 61 69 65 64 65 65 64 64 62 57 54 63 56 59 52 50 46 46 44 45 35 33 33 35 37 38 37 35 43 31 28 28 36 37 42
40 35 37 36 38 37 38 37 39 38 41 44 43 49 38 72 69 65 64 66 67 66 66 64 63 64 66 66 53 52 54 56 39 37 40 38 34 33 31 29 40 35 34 32 38 36 35 39 44
39 38 39 39 40 39 39 38 37 37 40 40 40 44 46 63 70 67 67 59 66 68 67 65 60 60 61 53 43 51 52 50 45 43 40 38 29 33 28 38 35 34 34 35 36 34 37 41 44
32 35 37 40 41 42 42 40 37 37 39 40 40 40 43 45 48 71 70 60 59 68 68 68 64 58 59 47 56 56 47 53 49 46 49 43 38 35 32 36 35 36 41 42 41 38 41 41 44
29 31 34 33 36 36 38 37 38 38 40 41 41 41 43 45 47 52 71 70 67 70 71 67 66 67 63 64 58 51 55 58 50 50 50 46 36 36 33 39 40 43 47 45 39 39 39 40 42
27 31 30 30 30 31 33 33 33 33 35 38 40 42 45 48 48 52 54 59 73 79 69 72 74 80 77 69 67 61 58 57 52 49 53 49 36 30 39 40 42 46 43 46 44 41 40 37 43
28 29 29 29 29 28 28 31 29 28 31 35 38 40 43 46 51 54 55 57 55 79 77 80 76 76 78 77 66 66 64 65 49 52 52 51 42 42 45 42 38 41 44 47 43 38 32 37 40
32 31 31 31 31 32 32 33 34 35 34 37 39 41 43 46 49 52 55 59 59 61 64 67 75 78 73 60 68 71 64 63 64 57 56 50 44 48 46 43 43 50 48 45 46 41 32 36 39
31 32 29 27 29 23 36 33 34 34 32 37 42 46 49 49 50 52 53 56 61 62 63 64 64 65 78 76 73 74 74 72 68 62 59 52 50 54 52 50 50 48 43 47 48 33 32 36 37
30 33 31 27 17 18 33 33 32 28 31 32 35 39 46 50 53 54 56 57 57 63 66 66 68 68 67 82 81 71 68 74 72 67 63 58 56 58 56 53 49 47 45 46 41 32 33 36 35
31 32 34 35 32 32 30 26 26 28 28 33 36 39 41 45 50 53 56 59 62 64 64 69 69 69 69 69 72 75 73 77 72 68 63 63 65 66 61 52 48 46 46 44 39 35 36 35 35
35 32 31 29 30 25 23 21 21 26 29 33 38 41 44 46 48 51 55 55 56 64 70 70 72 73 72 72 71 69 68 65 69 74 65 63 61 58 54 48 46 44 45 40 36 38 34 33 36
31 35 29 31 30 28 26 21 26 26 30 31 33 37 38 41 46 51 51 48 48 49 55 72 74 74 75 74 72 70 67 64 59 57 60 54 52 49 48 45 43 44 39 35 36 36 33 34 36
29 28 29 29 28 29 31 22 25 23 30 31 31 32 34 37 40 45 49 52 53 60 62 58 73 78 76 76 74 71 67 64 61 58 56 54 50 47 46 44 43 37 34 33 35 35 34 35 36
Wind_Direction
234 224 221 222 224 225 213 219 223 219 219 221 232 223 222 218 211 209 206 190 191 194 170 153 161 215 229 63 49 36 20 34 30 36 34 28 24 29 35 27 19 12 8 3 360 357 355 357 351
238 228 222 220 221 224 221 216 218 221 223 222 223 228 222 217 216 201 198 186 181 191 168 137 177 219 243 314 60 63 55 47 51 34 22 27 23 18 15 13 10 12 5 357 352 349 350 352 352
233 236 226 221 221 223 217 212 217 220 223 224 221 220 225 216 222 208 200 199 187 186 180 159 194 249 234 245 182 86 70 34 24 13 5 2 4 5 1 2 6 8 10 359 354 352 356 352 350
233 235 236 231 222 223 220 217 223 222 222 223 225 219 220 222 222 212 205 209 196 191 190 179 201 259 254 235 232 176 337 15 15 6 360 354 357 353 345 353 1 359 4 5 13 12 10 360 357
229 232 236 237 230 218 217 219 226 227 226 222 223 223 219 223 223 215 208 211 207 198 199 197 207 245 255 249 249 233 274 302 331 337 337 334 338 341 339 344 351 358 359 5 16 12 8 6 360
230 229 230 233 238 225 216 216 225 232 232 230 224 222 222 219 221 217 213 216 220 219 200 212 212 230 245 255 258 245 252 279 298 306 316 319 323 321 322 326 330 337 347 357 11 10 5 2 359
234 230 230 227 231 236 226 214 226 233 238 237 230 224 221 218 217 218 217 221 225 229 225 226 210 220 244 250 257 248 252 264 282 291 298 307 317 319 320 319 321 331 342 355 6 6 1 1 358
236 237 232 232 229 235 238 224 219 230 235 239 235 228 223 219 220 220 216 225 227 232 232 221 216 223 245 254 253 250 249 254 262 280 291 300 310 313 314 316 318 324 336 347 357 355 353 354 353
235 238 237 236 236 238 239 236 222 226 236 241 239 233 229 222 219 218 218 222 227 233 236 238 232 221 234 242 242 252 251 246 257 265 272 281 297 303 309 317 320 324 334 339 342 342 345 344 345
242 244 243 243 240 238 240 241 241 222 229 231 237 233 227 222 214 217 218 220 221 226 238 242 230 221 217 226 233 245 255 244 251 261 266 273 282 288 299 304 312 317 324 329 335 332 335 333 335
244 246 248 243 243 237 236 240 244 243 223 228 232 231 225 221 208 212 215 216 221 222 231 241 226 214 200 220 232 240 248 248 251 250 258 262 267 271 282 292 305 310 311 324 328 325 330 329 328
246 247 246 250 244 236 235 241 238 240 230 217 227 229 225 221 211 209 216 217 219 222 227 228 233 226 203 221 226 239 225 241 248 246 252 253 257 261 269 274 289 301 307 316 319 322 325 326 325
247 249 248 246 244 241 235 235 246 239 236 228 218 228 225 219 217 212 214 219 217 220 225 227 222 234 215 212 228 228 237 227 231 242 247 242 237 252 259 263 277 287 295 301 307 315 322 323 320
248 253 248 245 243 238 240 241 245 235 236 237 229 221 224 220 217 215 213 218 219 217 223 228 225 215 208 215 217 226 222 220 232 227 238 262 250 249 255 257 264 273 282 292 304 311 317 315 318
249 249 250 249 248 242 239 239 242 246 247 245 227 225 222 219 215 213 214 216 220 219 215 221 231 229 218 208 214 217 228 229 232 226 243 240 239 245 250 254 262 254 274 287 294 302 309 313 315
249 249 251 250 251 250 244 243 240 242 247 249 234 226 221 219 215 214 215 216 220 225 224 212 221 224 239 232 223 223 217 220 233 240 230 230 233 244 250 263 256 290 278 271 277 290 311 312 314
249 250 248 257 250 254 250 246 246 242 247 252 244 232 228 222 216 214 216 217 220 225 232 234 211 222 229 221 227 246 232 235 234 237 243 231 244 251 255 261 268 292 302 265 268 292 309 312 310
248 246 250 251 253 252 253 248 247 243 244 246 246 250 247 220 216 211 215 217 220 224 230 236 241 217 224 217 227 225 238 234 237 245 250 248 256 260 274 293 283 290 293 299 294 303 305 311 309
250 250 251 252 254 253 254 253 249 246 245 243 244 240 250 222 216 213 215 218 216 223 227 232 235 247 228 237 229 244 249 228 267 261 253 263 268 280 283 278 291 288 285 290 294 301 303 309 308
252 252 252 251 252 253 253 253 253 250 248 246 242 241 243 248 235 213 216 223 221 224 224 229 235 238 241 221 236 238 248 246 246 257 257 269 280 267 271 284 288 281 280 286 294 303 302 305 305
253 252 253 253 255 256 253 254 251 249 248 247 246 244 241 237 237 236 217 220 230 222 226 229 233 234 237 241 240 235 244 252 251 259 262 269 256 246 273 280 276 283 284 286 290 297 302 304 301
255 251 253 253 252 251 254 251 252 252 252 251 248 243 243 243 238 235 241 237 223 227 233 223 230 231 233 236 238 239 242 243 244 249 258 258 273 255 270 282 284 282 289 297 294 297 303 303 298
252 256 256 257 258 257 258 257 253 245 247 251 250 250 248 243 242 239 238 237 242 233 230 230 230 228 234 229 235 242 242 249 231 246 255 261 263 255 269 279 274 281 287 288 290 297 301 294 299
252 253 255 257 259 262 261 262 264 260 256 252 251 252 251 251 250 244 240 241 239 239 241 248 239 235 234 228 234 239 242 248 254 252 249 252 255 248 267 271 272 276 282 280 290 291 294 291 294
254 255 255 259 257 254 258 260 263 271 267 261 258 255 252 250 251 254 249 243 242 242 241 240 243 245 235 233 236 240 241 241 242 247 249 248 248 261 266 271 273 277 279 283 287 286 286 287 294
256 251 248 247 242 245 260 261 267 258 262 263 261 262 264 260 255 252 252 251 246 244 244 242 240 237 240 239 238 238 241 242 240 241 247 249 254 258 263 270 272 280 281 282 285 280 285 286 290
257 254 249 250 255 259 258 266 265 263 259 265 264 264 265 266 267 262 257 252 251 250 245 244 243 242 240 237 238 242 243 244 243 241 244 250 257 260 265 266 275 277 280 283 287 283 284 285 287
250 248 247 250 255 258 262 256 264 263 267 276 283 282 280 275 271 272 271 264 257 249 245 243 241 241 240 240 239 240 241 246 246 244 248 253 256 256 256 264 268 272 274 276 278 276 280 284 284
247 242 243 247 251 255 253 255 259 268 281 282 284 281 278 278 273 273 272 272 270 262 253 243 239 239 239 239 240 240 239 242 243 244 246 248 251 251 255 258 265 266 269 273 269 274 279 278 281
242 248 253 250 252 254 258 247 257 273 287 288 282 278 280 278 275 272 269 264 267 265 261 248 240 235 236 237 238 240 238 237 240 242 244 248 250 252 254 259 263 268 269 269 269 271 274 277 280
Height
5852 5855 5858 5863 5869 5871 5875 5879 5880 5881 5881 5880 5885 5887 5893 5897 5902 5907 5903 5905 5906 5907 5906 5908 5909 5909 5909 5909 5908 5908 5908 5908 5908 5907 5906 5904 5904 5902 5901 5901 5900 5900 5899 5898 5896 5895 5894 5891 5890
5846 5849 5853 5856 5860 5866 5873 5872 5873 5873 5873 5877 5881 5884 5890 5896 5896 5897 5899 5901 5903 5904 5905 5906 5908 5908 5908 5907 5907 5907 5907 5907 5906 5906 5905 5904 5903 5903 5902 5901 5901 5900 5898 5897 5895 5894 5892 5891 5889
5839 5842 5847 5848 5852 5858 5861 5862 5862 5864 5868 5871 5874 5879 5883 5884 5891 5895 5897 5899 5901 5901 5902 5904 5906 5906 5907 5907 5906 5906 5906 5906 5905 5905 5905 5905 5904 5903 5903 5902 5901 5899 5897 5897 5894 5892 5891 5889 5888
5831 5835 5838 5841 5846 5849 5855 5856 5855 5856 5860 5864 5868 5874 5877 5880 5886 5891 5893 5897 5898 5899 5899 5902 5903 5905 5905 5906 5906 5906 5905 5904 5904 5905 5905 5905 5904 5904 5904 5903 5901 5900 5898 5898 5894 5891 5889 5889 5886
5823 5827 5829 5833 5835 5842 5847 5850 5850 5849 5852 5858 5861 5864 5870 5875 5881 5887 5889 5892 5896 5897 5897 5899 5901 5902 5903 5904 5905 5904 5904 5904 5903 5904 5904 5903 5903 5903 5903 5903 5901 5901 5899 5898 5894 5891 5890 5888 5886
5815 5819 5821 5826 5827 5832 5839 5843 5844 5846 5849 5853 5856 5861 5863 5868 5875 5882 5885 5887 5891 5893 5893 5895 5897 5900 5901 5902 5903 5903 5902 5902 5903 5903 5902 5902 5902 5902 5902 5902 5900 5900 5898 5896 5893 5891 5889 5887 5885
5806 5811 5815 5819 5821 5825 5833 5835 5839 5841 5843 5845 5850 5855 5857 5862 5869 5876 5879 5883 5885 5888 5889 5892 5893 5896 5898 5899 5899 5901 5901 5901 5901 5901 5900 5900 5900 5900 5900 5900 5899 5897 5895 5893 5890 5888 5887 5885 5884
5799 5801 5806 5811 5816 5820 5823 5828 5830 5832 5835 5835 5844 5846 5851 5858 5865 5871 5875 5878 5881 5883 5885 5887 5890 5893 5894 5895 5896 5897 5898 5898 5899 5899 5899 5899 5899 5898 5897 5897 5896 5895 5893 5891 5888 5887 5885 5883 5882
5792 5792 5797 5804 5809 5814 5816 5820 5821 5824 5831 5832 5835 5842 5846 5852 5859 5866 5870 5873 5875 5878 5879 5881 5884 5887 5889 5891 5892 5894 5895 5895 5895 5896 5896 5896 5897 5896 5895 5894 5894 5892 5890 5888 5886 5885 5883 5881 5879
5783 5785 5792 5799 5802 5806 5809 5811 5811 5817 5821 5825 5827 5833 5838 5844 5851 5856 5862 5865 5869 5872 5874 5876 5877 5881 5883 5885 5887 5889 5891 5892 5893 5893 5893 5893 5894 5894 5893 5892 5890 5889 5887 5886 5884 5883 5881 5879 5876
5777 5778 5785 5784 5789 5796 5799 5801 5802 5809 5813 5818 5818 5822 5829 5836 5842 5848 5852 5855 5862 5866 5867 5868 5871 5871 5873 5878 5881 5884 5887 5888 5889 5889 5890 5890 5890 5890 5890 5889 5887 5885 5884 5882 5881 5880 5878 5877 5875
5769 5772 5773 5777 5779 5784 5792 5793 5793 5796 5804 5804 5810 5813 5819 5826 5832 5838 5844 5847 5853 5857 5860 5862 5864 5865 5865 5872 5876 5879 5880 5883 5883 5884 5885 5886 5886 5887 5886 5885 5883 5882 5881 5880 5879 5877 5875 5874 5872
5761 5762 5765 5768 5771 5774 5779 5782 5782 5785 5790 5795 5799 5806 5810 5816 5822 5828 5834 5840 5845 5849 5850 5854 5857 5858 5862 5865 5869 5873 5875 5875 5877 5879 5880 5879 5880 5882 5882 5881 5879 5878 5877 5877 5875 5873 5872 5869 5867
5751 5754 5758 5760 5762 5764 5767 5771 5770 5777 5777 5786 5792 5796 5802 5806 5811 5818 5824 5830 5835 5839 5843 5845 5850 5853 5854 5859 5861 5864 5864 5868 5869 5871 5873 5874 5874 5877 5878 5877 5876 5875 5874 5873 5872 5870 5869 5867 5863
5745 5748 5749 5752 5754 5755 5756 5762 5764 5766 5770 5777 5781 5785 5791 5796 5801 5807 5814 5820 5824 5825 5830 5836 5842 5844 5846 5848 5854 5857 5859 5860 5862 5864 5866 5868 5869 5871 5871 5872 5871 5868 5870 5869 5867 5865 5864 5862 5858
5738 5740 5741 5740 5744 5746 5749 5753 5753 5758 5764 5769 5772 5778 5782 5786 5790 5796 5803 5810 5816 5819 5820 5820 5829 5835 5839 5842 5846 5849 5847 5852 5854 5857 5859 5862 5862 5864 5864 5866 5864 5866 5864 5863 5862 5861 5860 5858 5853
5731 5733 5734 5731 5736 5737 5741 5744 5741 5750 5753 5758 5763 5766 5770 5777 5780 5785 5791 5799 5805 5810 5812 5802 5815 5823 5829 5833 5838 5842 5843 5845 5846 5850 5854 5855 5856 5859 5858 5858 5862 5860 5858 5859 5857 5857 5855 5852 5849
5721 5725 5726 5726 5727 5729 5731 5735 5736 5740 5743 5748 5753 5753 5758 5762 5770 5774 5781 5787 5793 5799 5803 5806 5807 5814 5815 5816 5825 5830 5836 5836 5843 5847 5849 5850 5852 5852 5852 5854 5856 5854 5853 5854 5855 5852 5850 5847 5844
5714 5716 5717 5718 5719 5722 5723 5725 5729 5731 5732 5736 5742 5745 5748 5753 5759 5764 5770 5771 5780 5786 5791 5796 5799 5801 5804 5808 5814 5822 5829 5831 5833 5839 5840 5842 5846 5846 5849 5851 5848 5848 5847 5848 5850 5846 5845 5841 5838
5705 5707 5708 5709 5711 5712 5714 5716 5722 5724 5725 5726 5731 5736 5738 5741 5746 5752 5757 5760 5763 5772 5778 5784 5788 5793 5796 5793 5810 5816 5819 5823 5826 5830 5835 5836 5839 5842 5841 5843 5842 5841 5840 5842 5843 5841 5837 5835 5832
5698 5699 5699 5702 5702 5704 5705 5709 5710 5714 5716 5716 5719 5725 5728 5731 5735 5739 5742 5749 5751 5757 5767 5774 5780 5785 5789 5794 5791 5801 5811 5815 5819 5823 5828 5831 5831 5834 5835 5836 5835 5835 5834 5836 5837 5835 5832 5827 5826
5690 5690 5692 5694 5696 5697 5698 5702 5703 5705 5706 5705 5708 5713 5717 5719 5724 5728 5731 5737 5739 5747 5750 5758 5766 5773 5778 5783 5788 5795 5802 5806 5811 5815 5818 5820 5821 5826 5829 5829 5828 5826 5826 5826 5828 5827 5825 5823 5817
5683 5683 5685 5686 5687 5689 5691 5692 5696 5699 5698 5698 5700 5701 5704 5708 5709 5715 5720 5724 5728 5733 5740 5746 5751 5759 5765 5770 5777 5783 5789 5794 5783 5801 5806 5811 5815 5820 5821 5823 5822 5822 5820 5821 5820 5820 5818 5815 5813
5675 5677 5678 5679 5680 5682 5681 5683 5685 5687 5689 5690 5692 5693 5694 5696 5697 5702 5709 5714 5719 5724 5729 5732 5738 5745 5750 5754 5763 5772 5777 5781 5785 5793 5799 5803 5806 5810 5812 5814 5815 5815 5814 5813 5813 5813 5811 5808 5806
5668 5669 5672 5673 5673 5677 5672 5675 5676 5675 5674 5677 5679 5681 5683 5687 5689 5692 5697 5703 5707 5711 5716 5720 5725 5732 5737 5742 5750 5756 5763 5771 5776 5782 5788 5792 5796 5799 5803 5805 5805 5805 5805 5805 5805 5805 5803 5801 5798
5659 5660 5661 5662 5667 5669 5664 5668 5664 5667 5664 5664 5664 5666 5666 5673 5679 5682 5684 5688 5693 5697 5701 5706 5712 5719 5723 5729 5736 5742 5749 5756 5763 5770 5776 5781 5785 5788 5792 5795 5795 5796 5796 5796 5797 5796 5794 5792 5791
5651 5651 5651 5651 5654 5655 5658 5659 5658 5656 5656 5654 5654 5654 5655 5657 5660 5666 5671 5673 5676 5680 5685 5688 5695 5701 5708 5714 5720 5727 5736 5743 5750 5757 5765 5769 5774 5778 5782 5784 5785 5786 5786 5786 5789 5788 5787 5785 5783
5641 5642 5643 5645 5646 5647 5650 5652 5650 5648 5648 5644 5642 5643 5642 5644 5645 5647 5650 5653 5656 5659 5663 5669 5675 5684 5689 5697 5706 5714 5721 5727 5734 5744 5751 5758 5762 5766 5771 5774 5776 5777 5778 5779 5781 5780 5780 5778 5776
5631 5632 5636 5636 5638 5638 5641 5645 5641 5641 5637 5638 5635 5631 5632 5630 5631 5632 5633 5634 5636 5638 5641 5648 5657 5665 5672 5680 5689 5700 5708 5716 5723 5730 5738 5745 5750 5755 5760 5763 5765 5768 5770 5771 5772 5771 5771 5770 5769
5625 5626 5627 5629 5631 5630 5630 5637 5632 5631 5628 5627 5625 5621 5618 5619 5620 5619 5619 5619 5619 5619 5620 5626 5634 5643 5653 5662 5673 5682 5694 5703 5712 5721 5727 5733 5739 5744 5748 5751 5756 5758 5761 5761 5762 5762 5763 5762 5760